Regional Weather Roundup
Issued by NWS

Home | Current Version | Previous Version | Text Only | Print | Product List | Glossary Off
Versions: 1 2 3 4 5 6 7 8 9 10 11 12 13 14 15 16 17 18 19 20 21 22 23 24 25 26 27 28 29 30 31 32 33 34 35 36 37 38 39 40 41 42 43 44 45 46 47 48 49 50

000
ASUS43 KDMX 012207
RWRIA

WEATHER ROUNDUP FOR IOWA
NATIONAL WEATHER SERVICE DES MOINES IA
400 PM CST SUN FEB 01 2015

NOTE: "FAIR" INDICATES FEW OR NO CLOUDS BELOW 12,000 FEET WITH NO
SIGNIFICANT WEATHER AND/OR OBSTRUCTIONS TO VISIBILITY.

* - THESE STATIONS ARE NOT NWS STATIONS...THUS NOT UNDER NWS
QUALITY CONTROL.  THEY ALSO DO NOT REPORT WEATHER SUCH
AS PRECIPITATION OR FOG.

IAZ001>003-012>014-020>022-031>034-043>046-012300-
   NORTHWEST IOWA

CITY           SKY/WX    TMP DP  RH WIND       PRES   REMARKS
CARROLL *      LGT SNOW  16  12  86 N23G33    30.09R VSB 3/4 WCI  -2
CHEROKEE *     LGT SNOW  12   9  85 N18G29    30.19R WCI  -5
DENISON *      LGT SNOW  14  10  85 N24G33    30.11R WCI  -5
LE MARS *      CLOUDY    10   7  85 N20G26    30.24R FOG     WCI  -8
ORANGE CITY *    N/A     12   7  79 N17G23    30.21R WCI  -5
SHELDON *      CLOUDY    12   7  79 N24       30.19R HAZE    WCI  -8
SIOUX CITY     MIX PCPN  11   5  77 N22G31    30.24R WCI  -8
SPENCER        CLOUDY    13   6  74 N29       30.17R HAZE    WCI  -8
STORM LAKE *   MIX PCPN  12   9  85 N25G35    30.13R VSB 1   WCI  -8
$$

IAZ055>058-069>071-079>083-090>094-012300-
   SOUTHWEST IOWA

CITY           SKY/WX    TMP DP  RH WIND       PRES   REMARKS
ATLANTIC *     LGT SNOW  18  12  79 N29       30.06R VSB 3/4 WCI  -2
AUDUBON *      LGT SNOW  16  12  86 N18G24    30.07R VSB 1   WCI  -1
CLARINDA *     PTSUNNY   18  14  86 N25G32    30.07R FOG     WCI  -1
COUNCIL BLFS * LGT SNOW  14  12  92 NW20G26   30.11R WCI  -3
CRESTON *      LGT SNOW  18  14  86 N24G32    29.99R WCI   0
HARLAN  *      LGT SNOW  16  16 100 N26G35    30.13R VSB 1   WCI  -3
LAMONI         LGT SNOW  19  15  84 N22G32    29.93R FOG     WCI   2
RED OAK *      LGT SNOW  18  14  86 N25G32    30.08R WCI  -1
SHENANDOAH *   LGT SNOW  18  14  86 N18G35    30.10R WCI   2
$$

IAZ047>049-059>061-072>074-084-012300-
   CENTRAL IOWA

CITY           SKY/WX    TMP DP  RH WIND       PRES   REMARKS
AMES           LGT SNOW  16  11  80 N24G36    30.04R VSB 1   WCI  -2
ANKENY *       LGT SNOW  18  14  86 N21G29    30.02R VSB 3/4 WCI   1
CHARITON *     LGT SNOW  19  16  86 N23G31    29.94R VSB 1   WCI   2
DES MOINES     SNOW      19  13  77 N23G37    30.01R VSB 1/2 WCI   2
KNOXVILLE *    SNOW      19  14  79 N18G26    29.95R VSB 1/2 WCI   4
MARSHALLTOWN   SNOW      16  12  84 N23G38    29.99R VSB 1/2 WCI  -2
PELLA *        CLOUDY    19  16  87 N16G22    29.96R WCI   4
PERRY *        LGT SNOW  18  14  86 N25G31    30.06R VSB 1   WCI  -1
$$

IAZ004>006-015-016-023>025-035-036-012300-
   NORTH CENTRAL IOWA

CITY           SKY/WX    TMP DP  RH WIND       PRES   REMARKS
ALGONA *       LGT SNOW  14   9  79 N18G30    30.13R WCI  -3
CLARION *      LGT SNOW  14  12  92 N21G29    30.09R VSB 3/4 WCI  -4
ESTHERVILLE    LGT SNOW  12   7  80 N26       30.16R WCI  -8
FORT DODGE *   CLOUDY    14   7  73 CALM      30.11R
FOREST CITY *  LGT SNOW  14   5  67 N22G31    30.10R WCI  -4
IOWA FALLS *   LGT SNOW  16  10  79 N22G30    30.04R WCI  -2
$$

IAZ007>011-017>019-026>030-037>042-050>054-066-012300-
   NORTHEAST IOWA

CITY           SKY/WX    TMP DP  RH WIND       PRES   REMARKS
CEDAR RAPIDS   SNOW      17  14  88 N29G37    29.90R VSB 1/4 WCI  -2
CHARLES CITY * LGT SNOW  14   9  79 N25G32    30.05R VSB 3/4 WCI  -5
CLINTON *      CLOUDY   N/A N/A N/A NE26G33   29.85R VSB 1/2
DECORAH *      LGT SNOW  14   9  79 N17G25    30.02R WCI  -3
DUBUQUE        SNOW      14  10  84 NE29G38   29.88R VSB 1/2 WCI  -7
MONTICELLO *   SNOW      18  14  86 NE22G35   29.91R VSB 1/2 WCI   0
OELWEIN *      LGT SNOW  16  10  79 N28G36    29.98R VSB 3/4 WCI  -4
WATERLOO       LGT SNOW  15  12  88 N22       30.01R FOG     WCI  -3
$$

IAZ064-065-067-068-078-012300-
   EAST CENTRAL IOWA

CITY           SKY/WX    TMP DP  RH WIND       PRES   REMARKS
DAVENPORT      HVY SNOW  18  14  84 N32G38    29.83R VSB 1/4 WCI  -2
IOWA CITY      SNOW      19  15  84 N16G30    29.91R VSB 1/2 WCI   4
MT. PLEASANT * LGT SNOW  21  19  93 N21       29.83R VSB 3/4 WCI   6
MUSCATINE *    SNOW      21  18  86 N25       29.85R VSB 1/2 WCI   4
QUAD CITIES    SNOW      21  17  84 N15G24    29.81R VSB 1/2 WCI   8
$$

IAZ062-063-075>077-085>089-095>099-012300-
   SOUTHEAST IOWA

CITY           SKY/WX    TMP DP  RH WIND       PRES   REMARKS
BURLINGTON     LGT SNOW  25  22  88 NE22G37   29.77R VSB 3/4 WCI  10
FAIRFIELD *    LGT SNOW  21  16  79 N21G31    29.87R VSB 3/4 WCI   6
FORT MADISON * LGT SNOW  25  21  86 N17G23    29.79R VSB 1   WCI  11
KEOKUK *       MIX PCPN  27  25  93 N14G23    29.77R WCI  15
OSKALOOSA *    LGT SNOW  19  16  86 N20       29.92R VSB 3/4 WCI   4
CENTERVILLE *  LGT SNOW  19  18  93 N14G20    29.90R WCI   6
OTTUMWA        LGT SNOW  20  16  84 N22G35    29.90R VSB 3/4 WCI   3
WASHINGTON *   SNOW      21  21 100 N26G33    29.86R VSB 1/2 WCI   4
$$

ABBREVIATIONS USED IN REMARKS
   TC - TEMPERATURES IN CELSIUS
  WCI - WIND CHILL INDEX
   HX - HEAT INDEX
  VSB - VISIBILITY
$$



USA.gov is the U.S. government's official web portal to all federal, state and local government web resources and services.